[[{"header":{"parameterUnit":"m.s-1","parameterCategory":1,"la1":30.2991,"la2":30.254,"lo1":-89.0895,"lo2":-89.0444,"dy":0.0017,"dx":0.0017,"nx":28,"ny":28,"refTime":"2024-08-08T09:00:00:Z","depth":0,"parameterNumber":2,"parameterNumberName":"U-component_of_WINDS"},"data":[0,0,0,0,0,0,0,0,0,0,0,0,0,0,0,0,0,0,0,0,0,0,0,0,0,0,0,0,0,0,0,0,0,0,0,0,0,0,0,0,0,0,0,0,0,0,0,0,0,0,0,0,0,0,0,0,0,0,2.087,2.0872,0,2.1075,2.1078,2.108,2.1079,2.1076,2.1073,2.1071,2.1288,2.1296,2.1304,0,0,0,0,0,0,0,0,0,0,0,0,0,2.0482,2.0489,2.087,2.0872,2.0875,2.1075,2.1078,2.108,2.1079,2.1076,2.1072,2.1069,2.1285,2.1295,2.1305,0,0,0,0,0,0,0,0,0,0,0,0,0,2.0665,2.0491,2.0869,2.0898,2.0903,2.1074,2.1078,2.1081,2.108,2.1076,2.1072,2.1068,2.1282,2.1294,2.1306,2.1465,0,0,2.1344,2.135,0,0,0,0,0,0,0,0,2.0655,2.0679,2.0891,2.0896,2.0902,2.1047,2.102,2.121,2.1081,2.1013,2.1071,2.1066,2.1211,2.1229,2.1277,2.1475,2.1484,2.1345,2.1353,2.1358,2.1362,0,0,0,0,0,0,0,2.0642,2.067,2.0951,2.0894,2.0901,2.0902,2.0924,2.1056,2.1133,2.1018,2.1019,2.1043,2.1214,2.1265,2.1282,2.1487,2.1345,2.1356,2.1364,2.1369,2.1825,2.1829,0,0,0,0,0,0,2.0622,2.066,2.0945,2.0957,2.0765,2.0913,2.0937,2.1005,2.1131,2.1146,2.1046,2.1042,2.1246,2.1268,2.129,2.1483,2.1358,2.137,2.1377,2.182,2.1826,2.1831,0,0,0,0,0,0,2.0614,2.0648,2.0936,2.0809,2.0846,2.0924,2.1,2.1011,2.1062,2.1152,2.1166,2.1084,2.1243,2.1272,2.142,2.149,2.1376,2.1387,2.1814,2.1822,2.1828,2.187,0,0,0,0,0,0,2.0603,2.0645,2.0705,2.081,2.0852,2.1062,2.1004,2.1018,2.1083,2.1079,2.1192,2.1206,2.1242,2.1402,2.1433,2.1505,2.1397,2.1809,2.1818,2.1826,2.1863,2.1878,2.189,0,0,0,0,0,2.0589,2.071,2.0708,2.0742,2.0928,2.1066,2.109,2.1128,2.1088,2.115,2.1207,2.1203,2.1477,2.1417,2.1452,2.1529,2.1804,2.1815,2.1825,2.1857,2.1875,2.189,0,0,0,0,0,0,2.0613,2.0724,2.0723,2.0881,2.0964,2.1065,2.1144,2.1146,2.1243,2.1236,2.128,2.1306,2.1453,2.1506,2.1437,2.1689,2.1636,2.1654,2.1648,2.1666,2.168,2.1664,2.1407,0,0,0,0,0,2.0636,2.0737,2.083,2.096,2.1002,2.1066,2.1127,2.1148,2.1237,2.1272,2.1341,2.1428,2.1534,2.1603,2.1706,2.1871,2.1895,2.1941,2.1955,2.1965,2.198,2.207,2.2092,2.1865,2.1865,2.1864,0,0,2.0687,2.076,2.0821,2.0967,2.1034,2.1138,2.1095,2.1208,2.1286,2.129,2.1433,2.1487,2.1587,2.1744,2.1817,2.1793,2.2048,2.1979,2.1987,2.1996,2.2083,2.2105,2.2124,2.1872,2.1871,2.1869,0,0,2.0831,2.0896,2.1012,2.1079,2.1179,2.1221,2.1248,2.135,2.1384,2.1528,2.1533,2.1628,2.181,2.188,2.194,2.211,2.2109,2.2143,2.2214,2.2302,2.2319,2.2335,2.2395,2.2416,2.2157,2.2158,2.2158,0,2.0881,2.1037,2.1072,2.1184,2.1248,2.1254,2.1372,2.1436,2.1566,2.161,2.1581,2.1808,2.1877,2.2049,2.209,2.2139,2.2173,2.213,2.2314,2.233,2.2346,2.2403,2.2426,2.2161,2.2161,2.216,2.216,0,2.1093,2.1201,2.1283,2.1404,2.1478,2.1593,2.1646,2.1717,2.1732,2.1777,2.1923,2.2005,2.2123,2.2166,2.2183,2.2342,2.2323,2.2304,2.2252,2.237,2.2425,2.2447,2.2166,2.2164,2.2163,2.2163,0,0,2.1259,2.1397,2.1426,2.1481,2.1592,2.1677,2.1792,2.1906,2.1965,2.2055,2.2152,2.2305,2.2287,2.2355,2.238,2.2457,2.2585,2.2428,2.2431,2.2453,2.2763,2.2776,2.2801,2.2585,2.2589,2.2592,2.2754,0,2.1414,2.1616,2.165,2.1828,2.1928,2.1935,2.2035,2.2115,2.216,2.2252,2.2303,2.241,2.2379,2.2419,2.2495,2.2553,2.2647,2.2542,2.2677,2.2681,2.265,2.283,2.2845,2.2994,2.2776,2.278,2.2782,0,2.1622,2.1713,2.19,2.1996,2.204,2.2129,2.2235,2.2324,2.2414,2.2441,2.2516,2.2532,2.2653,2.2595,2.2763,2.269,2.2747,2.2784,2.2791,2.2804,2.2738,2.2848,2.3042,2.3064,2.2817,2.2814,2.2811,0,2.1723,2.1893,2.2027,2.2074,2.2189,2.2252,2.2303,2.2389,2.2455,2.2549,2.2591,2.2699,2.2758,2.2841,2.2885,2.284,2.3049,2.2996,2.3076,2.3075,2.312,2.3116,2.3325,2.3158,2.3158,2.3157,2.3157,0,2.1892,2.2006,2.2073,2.2155,2.2283,2.2322,2.2448,2.2499,2.2575,2.2668,2.2681,2.2768,2.2822,2.2917,2.2953,2.3085,2.3113,2.3139,2.3147,2.3137,2.3133,2.3175,2.3165,2.3163,2.3162,2.3161,2.316,0,2.2026,2.2075,2.2221,2.2318,2.2345,2.2435,2.2518,2.2598,2.2643,2.276,2.279,2.286,2.2973,2.3025,2.3165,2.3189,2.334,2.3341,2.3308,2.3311,2.3387,2.3379,2.363,2.3664,2.3475,2.3477,2.3478,0,2.213,2.2217,2.2323,2.2384,2.2437,2.2537,2.2603,2.2645,2.2714,2.2823,2.289,2.3003,2.3095,2.3275,2.3339,2.3446,2.345,2.353,2.3466,2.3453,2.345,2.3444,2.3452,2.3542,2.3544,2.3545,2.3546,0,2.2309,2.2329,2.2423,2.2526,2.2604,2.2687,2.2769,2.282,2.2875,2.2952,2.3066,2.3137,2.3278,2.339,2.3501,2.3556,2.3561,2.3566,2.359,2.358,2.3557,2.3569,2.3339,2.356,2.3559,2.3558,2.3557,2.3556,2.2431,2.2509,2.2594,2.2698,2.2764,2.2839,2.2919,2.2972,2.3067,2.3184,2.3204,2.3325,2.3413,2.3562,2.362,2.3717,2.3698,2.3733,2.3742,2.3749,2.3753,2.3542,2.3737,2.3737,2.3737,2.3736,2.3736,0,2.261,2.2665,2.276,2.2873,2.2955,2.295,2.3041,2.311,2.3215,2.3296,2.3386,2.3516,2.3624,2.3696,2.3806,2.3869,2.3874,2.3896,2.3891,2.3904,2.3764,2.3732,2.389,2.389,2.389,2.389,2.389,2.389,2.2713,2.2843,2.2873,2.3036,2.309,2.3207,2.3259,2.3329,2.3393,2.3538,2.3626,2.3672,2.375,2.3864,2.3963,2.3982,2.4021,2.4044,2.4062,2.393,2.3914,2.3898,2.3868,2.4052,2.4053,2.4193,2.4195,2.4196]},{"header":{"parameterUnit":"m.s-1","parameterCategory":1,"la1":30.2991,"la2":30.254,"lo1":-89.0895,"lo2":-89.0444,"dy":0.0017,"dx":0.0017,"nx":28,"ny":28,"refTime":"2024-08-08T09:00:00:Z","depth":0,"parameterNumber":3,"parameterNumberName":"V-component_of_WINDS"},"data":[0,0,0,0,0,0,0,0,0,0,0,0,0,0,0,0,0,0,0,0,0,0,0,0,0,0,0,0,0,0,0,0,0,0,0,0,0,0,0,0,0,0,0,0,0,0,0,0,0,0,0,0,0,0,0,0,0,0,2.5521,2.5523,0,2.5733,2.5735,2.5737,2.5742,2.5739,2.5736,2.5734,2.5949,2.5957,2.5965,0,0,0,0,0,0,0,0,0,0,0,0,0,2.5114,2.5121,2.5521,2.5524,2.5526,2.5732,2.5735,2.5738,2.5742,2.5739,2.5736,2.5733,2.5947,2.5956,2.5966,0,0,0,0,0,0,0,0,0,0,0,0,0,2.5305,2.5124,2.552,2.5553,2.5558,2.5732,2.5735,2.5739,2.5743,2.5739,2.5735,2.5731,2.5943,2.5955,2.5967,2.6122,0,0,2.6005,2.601,0,0,0,0,0,0,0,0,2.5294,2.532,2.5546,2.5551,2.5557,2.5707,2.5671,2.5867,2.5744,2.5673,2.5734,2.5729,2.5872,2.589,2.5938,2.6132,2.6141,2.6006,2.6013,2.6019,2.6022,0,0,0,0,0,0,0,2.5281,2.531,2.5605,2.5549,2.5556,2.5555,2.5578,2.5708,2.5792,2.5679,2.5679,2.5704,2.5874,2.5926,2.5943,2.6144,2.6006,2.6016,2.6024,2.6029,2.6467,2.6471,0,0,0,0,0,0,2.5261,2.5299,2.5598,2.5611,2.5413,2.5566,2.5591,2.5663,2.579,2.5806,2.5708,2.5704,2.5907,2.5929,2.595,2.6134,2.6019,2.603,2.6037,2.6463,2.6468,2.6473,0,0,0,0,0,0,2.5253,2.5288,2.5589,2.5455,2.5494,2.5577,2.5657,2.5669,2.5721,2.5812,2.5827,2.5746,2.5905,2.5933,2.6077,2.6142,2.6036,2.6047,2.6458,2.6464,2.647,2.6507,0,0,0,0,0,0,2.5241,2.5285,2.5347,2.5457,2.5501,2.5715,2.5661,2.5676,2.5742,2.5739,2.5852,2.5867,2.5904,2.6059,2.609,2.6157,2.6056,2.6452,2.6461,2.6468,2.65,2.6513,2.6525,0,0,0,0,0,2.5226,2.535,2.535,2.5386,2.558,2.5719,2.5744,2.5785,2.5748,2.5808,2.5866,2.5863,2.613,2.6074,2.6108,2.618,2.6448,2.6458,2.6468,2.6494,2.6511,2.6525,0,0,0,0,0,0,2.5247,2.5365,2.5366,2.553,2.5614,2.5719,2.5798,2.5802,2.5899,2.5892,2.5937,2.5963,2.6104,2.6157,2.6092,2.6332,2.6284,2.6301,2.6293,2.6309,2.6322,2.6305,2.6066,0,0,0,0,0,2.527,2.5374,2.5472,2.5606,2.5648,2.5715,2.5778,2.5801,2.589,2.5926,2.5994,2.608,2.6182,2.6249,2.6349,2.6507,2.6529,2.6573,2.6586,2.6595,2.6609,2.669,2.6709,2.6504,2.6504,2.6504,0,0,2.5319,2.5397,2.546,2.5612,2.568,2.5783,2.5746,2.5859,2.5936,2.5943,2.6082,2.6134,2.6232,2.6382,2.6452,2.6431,2.667,2.6608,2.6615,2.6623,2.6702,2.6721,2.6738,2.6511,2.651,2.6508,0,0,2.5462,2.5533,2.5649,2.5717,2.582,2.5863,2.589,2.5994,2.6029,2.6169,2.6174,2.6265,2.6442,2.6509,2.6567,2.6727,2.6725,2.6758,2.6823,2.6901,2.6917,2.6931,2.6983,2.7002,2.6771,2.6771,2.6772,0,2.551,2.5669,2.5709,2.5821,2.5884,2.5894,2.6009,2.6073,2.6203,2.6246,2.622,2.6437,2.6505,2.6667,2.6705,2.6753,2.6782,2.6745,2.6912,2.6927,2.6941,2.699,2.701,2.6774,2.6774,2.6774,2.6773,0,2.572,2.5829,2.5911,2.6033,2.6106,2.622,2.6274,2.6343,2.6358,2.6402,2.654,2.662,2.6733,2.6774,2.6792,2.6937,2.6919,2.6902,2.6855,2.6962,2.7009,2.7029,2.6779,2.6778,2.6777,2.6776,0,0,2.5885,2.6023,2.6052,2.6105,2.6216,2.63,2.6411,2.652,2.6575,2.6663,2.6754,2.69,2.6883,2.6948,2.6972,2.7041,2.7155,2.7014,2.7017,2.7034,2.7313,2.7323,2.7345,2.7155,2.7159,2.7162,2.7303,0,2.6036,2.6234,2.627,2.6442,2.6539,2.6546,2.6642,2.6718,2.6761,2.6848,2.6895,2.6996,2.6968,2.7006,2.7074,2.7127,2.7211,2.7117,2.7236,2.724,2.7209,2.7371,2.7384,2.7514,2.7323,2.7326,2.7328,0,2.624,2.633,2.6511,2.6601,2.6644,2.673,2.6829,2.6914,2.6997,2.7023,2.7092,2.7107,2.7217,2.7165,2.7315,2.725,2.73,2.7332,2.7338,2.735,2.7289,2.7383,2.7558,2.7576,2.7359,2.7357,2.7354,0,2.6335,2.6502,2.663,2.6676,2.6787,2.6845,2.6894,2.6974,2.7035,2.7121,2.716,2.7259,2.7312,2.7386,2.7424,2.7383,2.757,2.7522,2.7591,2.7589,2.7629,2.7626,2.7811,2.7666,2.7666,2.7666,2.7665,0,2.6499,2.6608,2.6673,2.6752,2.6872,2.6911,2.7028,2.7075,2.7145,2.723,2.7243,2.7321,2.7369,2.7454,2.7485,2.7601,2.7626,2.7647,2.7653,2.7644,2.7641,2.7677,2.7668,2.7671,2.767,2.7669,2.7668,0,2.6627,2.6675,2.6814,2.6906,2.6931,2.7015,2.7092,2.7166,2.7207,2.7313,2.7341,2.7404,2.7503,2.7549,2.7673,2.7693,2.7824,2.7826,2.7795,2.7797,2.7861,2.7853,2.8074,2.8102,2.7942,2.7943,2.7945,0,2.6727,2.681,2.6909,2.6966,2.7016,2.7109,2.717,2.7209,2.7272,2.737,2.7431,2.753,2.7612,2.777,2.7825,2.7918,2.792,2.799,2.7934,2.792,2.7916,2.7909,2.7915,2.8,2.8002,2.8003,2.8004,0,2.6897,2.6915,2.7004,2.7099,2.717,2.7247,2.7322,2.7368,2.7418,2.7487,2.7588,2.7651,2.7774,2.7871,2.7966,2.8013,2.8016,2.8021,2.8041,2.8032,2.8009,2.8018,2.782,2.8016,2.8015,2.8014,2.8013,2.8013,2.7012,2.7084,2.7163,2.7258,2.7318,2.7386,2.7458,2.7506,2.7591,2.7695,2.7712,2.7818,2.7893,2.8021,2.807,2.8151,2.8135,2.8165,2.8172,2.8178,2.8179,2.7997,2.8169,2.8169,2.8169,2.8169,2.8168,0,2.7179,2.7229,2.7317,2.7419,2.7493,2.7488,2.7569,2.763,2.7724,2.7794,2.7872,2.7985,2.8077,2.8138,2.823,2.8282,2.8285,2.8305,2.83,2.831,2.8192,2.8163,2.8301,2.8301,2.8301,2.8301,2.8301,2.8301,2.7275,2.7394,2.7421,2.7567,2.7616,2.772,2.7766,2.7827,2.7882,2.8007,2.8083,2.8122,2.8186,2.8282,2.8365,2.8379,2.8411,2.8431,2.8445,2.8333,2.8319,2.8306,2.8279,2.8438,2.8439,2.8555,2.8556,2.8557]}]]